Home   Weather   Cleveland   Past weeks

Flag for USA Past Weather in Cleveland, Ohio, USA — Yesterday and Last 2 Weeks

Now
42 °F

Sunny.


Feels Like: 35 °F
Forecast: 26 / 41 °F
Wind: 15 mph from Southwest

Location: Cleveland-Hopkins International Airport

Current Time: Feb 26, 2017 at 4:54:23 pm

Latest Report: Feb 26, 2017 at 3:51 pm


Visibility: 10 mi

Pressure: 30.11 "Hg

Humidity: 36%

Dew Point: 17 °F

Location of ClevelandLocation

Past Weather in Cleveland — Graph

°F

Cleveland Temperature Yesterday

Maximum temperature yesterday: 60 °F (at 12:51 am)
Minimum temperature yesterday: 27 °F (at 11:51 pm)
Average temperature yesterday: 42 °F

High & Low Weather Summary for the Past Weeks

 TemperatureHumidityPressure
High76 °F (Feb 24, 2:51 pm)90% (Feb 12, 6:26 am)30.32 "Hg (Feb 12, 6:26 am)
Low24 °F (Feb 16, 10:51 pm)30% (Feb 19, 1:51 pm)29.49 "Hg (Feb 24, 11:51 pm)
Average45 °F64%29.89 "Hg
* Reported Feb 11 2:51 pm — Feb 26 2:51 pm, Cleveland, Weather by CustomWeather, © 2017

Note: Actual official high and low records may vary slightly from our data, if they occured in-between our weather recording intervals... More about our weather records

Advertising

Cleveland Weather History for the Previous 24 Hours

Scroll right to see more
 ConditionsComfort  
Time TempWeatherWind HumidityBarometerVisibility
2:51 pm
Sun, Feb 26
40 °FSunny.14 mph40%30.13 "Hg10 mi
1:51 pm39 °FSunny.15 mph43%30.15 "Hg10 mi
12:51 pm36 °FSunny.13 mph48%30.18 "Hg10 mi
11:51 am35 °FScattered clouds.12 mph52%30.18 "Hg10 mi
10:51 am31 °FScattered clouds.10 mph54%30.19 "Hg10 mi
9:51 am29 °FLight snow. Overcast.12 mph61%30.20 "Hg9 mi
8:51 am28 °FLight snow. Overcast.9 mph66%30.17 "Hg9 mi
8:08 am27 °FLight snow. Overcast.10 mph66%30.13 "Hg9 mi
7:51 am27 °FLight snow. Overcast.10 mph66%30.15 "Hg9 mi
6:51 am26 °FLight snow. Overcast.9 mph69%30.13 "Hg9 mi
5:51 am27 °FLight snow. Overcast.13 mph66%30.11 "Hg9 mi
5:41 am27 °FLight snow. Overcast.10 mph66%30.09 "Hg7 mi
5:27 am27 °FLight snow. Mostly cloudy.13 mph69%30.08 "Hg6 mi
4:51 am27 °FLight snow. Overcast.14 mph69%30.09 "Hg9 mi
4:03 am26 °FLight snow. Mostly cloudy.9 mph71%30.05 "Hg3 mi
3:51 am26 °FLight snow. Mostly cloudy.12 mph71%30.07 "Hg5 mi
3:18 am27 °FLight snow. Mostly cloudy.12 mph66%30.04 "Hg4 mi
2:51 am27 °FLight snow. Mostly cloudy.13 mph66%30.06 "Hg4 mi
1:51 am27 °FLight snow. Mostly cloudy.14 mph66%30.05 "Hg9 mi
1:18 am27 °FLight snow. Overcast.9 mph81%30.02 "Hg3 mi
12:59 am27 °FLight snow. Overcast.15 mph72%30.02 "Hg2 mi
11:51 pm
Sat, Feb 25
27 °FLight snow. Overcast.13 mph72%30.02 "Hg4 mi
10:51 pm28 °FLight snow. Mostly cloudy.17 mph66%30.01 "Hg4 mi
9:51 pm29 °FLight snow. Mostly cloudy.15 mph61%29.99 "Hg9 mi
8:51 pm29 °FLight snow. Overcast.20 mph58%29.96 "Hg9 mi
7:51 pm29 °FLight snow. Mostly cloudy.24 mph66%29.93 "Hg7 mi
6:51 pm31 °FLight snow. Mostly cloudy.24 mph61%29.90 "Hg9 mi
5:51 pm32 °FMore clouds than sun.24 mph59%29.85 "Hg10 mi
4:51 pm32 °FLight snow. More clouds than sun.24 mph61%29.82 "Hg6 mi
Weather by CustomWeather, © 2017

See weather overviewHow to use our weather pages